EHI
54 56 54 51 49 46 43 39 32 25 19 15 12 8 3 0 1 2 3 2 1 0 0 0 0 0 0 0 0 0 0 0 0 0 0 0 0 0 0 0 0 0 0
56 57 55 51 48 43 38 35 31 26 20 15 12 8 3 1 0 1 2 3 2 0 0 0 0 0 0 0 0 0 0 0 0 0 0 0 0 0 0 0 0 0 0
57 57 55 52 48 42 36 33 30 27 22 17 12 8 5 3 1 1 2 2 2 1 0 0 0 0 0 0 0 0 0 0 0 0 0 0 0 0 0 0 0 0 0
55 53 51 49 47 42 37 33 30 27 24 19 13 8 5 4 4 3 3 2 2 2 1 0 0 0 0 0 0 0 0 0 0 0 0 0 0 0 0 0 0 0 0
51 48 46 46 44 40 36 32 29 26 23 18 12 7 4 3 3 5 5 2 2 2 2 1 0 0 0 0 0 0 0 0 0 0 0 0 0 0 0 0 0 0 0
46 45 42 40 38 35 31 28 25 23 19 15 10 5 2 1 2 5 6 5 3 3 2 2 1 0 0 0 0 0 0 0 0 0 0 0 0 0 0 0 0 0 0
41 38 34 31 29 28 25 22 21 19 15 11 8 5 1 0 1 3 5 5 4 3 3 2 2 1 1 0 0 0 0 0 0 0 0 0 0 0 0 0 0 0 0
34 30 25 21 21 22 20 18 17 16 11 8 7 5 2 0 0 1 2 3 3 3 3 1 1 1 1 1 1 0 0 0 0 0 0 0 0 0 0 0 0 0 0
27 25 21 17 16 17 16 15 14 13 10 8 6 5 3 1 0 0 0 1 1 2 2 1 0 1 1 2 2 1 0 0 0 0 0 0 0 0 0 0 0 0 0
23 21 18 15 14 14 15 14 13 11 11 9 7 5 3 2 1 1 1 0 0 1 1 0 0 0 1 2 3 2 1 0 0 0 0 0 0 0 0 0 0 0 0
20 19 16 13 12 15 17 16 13 11 11 11 10 7 5 4 3 3 2 0 0 0 0 0 0 0 0 1 3 3 2 1 0 0 0 0 0 0 0 0 0 0 0
17 17 15 11 12 16 19 18 15 13 13 13 13 12 10 8 6 4 2 0 0 0 0 0 0 0 0 1 2 3 3 2 1 0 0 0 0 0 0 0 0 0 0
17 16 14 13 14 17 19 18 17 16 16 15 15 14 13 11 9 5 2 1 1 1 1 0 0 0 0 0 1 3 3 2 1 0 0 0 0 0 0 0 0 0 0
17 16 13 13 17 19 19 19 19 18 17 16 16 14 14 13 10 6 3 2 2 2 2 2 1 1 1 1 1 2 2 1 0 0 0 0 0 0 0 0 0 0 0
17 16 13 14 18 21 21 21 19 17 16 16 15 14 13 12 10 7 5 3 3 3 4 4 4 3 3 2 1 1 1 0 0 0 0 0 0 0 0 0 0 0 0
19 18 17 18 20 22 22 22 19 16 15 15 15 14 12 11 9 7 6 4 4 4 5 5 5 5 5 3 1 0 0 0 0 0 0 0 0 0 0 0 0 0 0
20 18 18 22 23 22 22 21 19 16 15 14 14 13 12 10 8 7 5 5 4 4 4 3 3 4 4 2 0 0 0 0 0 0 0 0 0 0 0 0 0 0 0
19 15 15 19 22 23 23 21 19 17 15 13 13 13 11 9 7 5 4 4 4 4 3 2 2 2 1 0 0 0 0 0 0 0 0 0 0 0 0 0 0 0 0
19 16 14 14 17 21 23 21 18 16 14 11 11 11 9 7 5 4 3 3 3 3 3 3 2 1 0 0 0 0 0 0 0 0 0 0 0 0 0 0 0 0 0
20 19 16 13 14 18 21 20 17 14 12 10 9 8 8 6 4 3 3 2 2 3 3 3 2 1 0 0 0 0 0 0 0 0 0 0 0 0 0 0 0 0 0
16 17 15 13 14 17 20 21 17 13 11 10 8 7 7 6 5 3 1 1 1 1 2 2 2 1 0 0 0 0 0 0 0 0 0 0 0 0 0 0 0 0 0
10 11 12 11 12 15 19 19 14 9 9 9 7 6 5 6 6 3 1 0 0 0 1 1 1 0 0 0 0 0 0 0 0 0 0 0 0 0 0 0 0 0 0
6 7 8 8 8 10 12 11 7 4 4 4 4 3 3 4 4 2 0 0 0 0 0 0 0 0 0 0 0 0 0 0 0 0 0 0 0 0 0 0 0 0 0
4 4 5 5 6 5 5 3 2 1 1 1 1 1 1 3 3 1 0 0 0 0 0 0 0 0 0 0 0 0 0 0 0 0 0 0 0 0 0 0 0 0 0
3 3 3 3 3 3 1 0 1 1 0 0 0 0 1 2 2 1 0 0 0 0 0 0 0 0 0 0 0 0 0 0 0 0 0 0 0 0 0 0 0 0 0
3 3 3 2 1 1 1 1 2 2 1 0 0 0 0 1 1 0 0 0 0 0 0 0 0 0 0 0 0 0 0 0 0 0 0 0 0 0 0 0 0 0 0
Wind_Speed
8 9 10 11 11 11 12 12 12 11 10 7 6 6 5 4 4 4 6 6 6 6 5 4 3 4 3 3 3 3 3 1 2 3 2 3 2 1 2 3 3 4 4
8 9 9 10 11 12 12 11 11 11 10 8 6 5 5 4 4 4 5 6 6 6 6 5 4 4 3 4 3 3 2 1 2 3 3 2 3 3 1 1 3 4 3
13 11 11 10 11 12 12 12 11 11 9 9 6 5 4 3 3 3 3 4 6 6 5 6 5 4 4 3 3 3 4 2 0 2 4 3 3 2 3 1 1 2 3
10 10 10 10 11 11 10 10 10 10 9 10 9 10 7 6 5 4 4 4 5 6 6 6 5 4 4 4 3 3 3 3 1 0 0 2 4 3 1 3 1 1 3
11 11 10 10 10 10 10 10 10 9 9 9 11 10 7 5 4 4 6 5 4 5 6 6 5 5 4 4 4 3 3 3 3 2 1 1 1 2 3 1 2 2 2
10 9 8 7 8 9 9 10 10 10 9 10 10 10 9 8 8 7 6 5 3 3 5 5 5 5 4 4 4 4 4 3 3 2 2 2 2 2 2 2 2 2 3
10 10 9 8 8 9 10 9 10 9 9 9 9 9 9 9 10 8 7 6 4 3 5 5 5 4 4 4 4 4 4 3 3 3 2 2 2 2 3 3 2 2 2
9 10 10 9 9 10 10 10 10 9 9 9 8 8 8 7 6 7 6 7 5 4 5 5 5 6 5 5 4 3 3 3 3 3 2 1 1 2 3 3 3 1 2
10 10 9 9 9 9 10 11 10 8 9 9 8 7 8 7 7 7 6 5 4 5 6 6 6 6 6 5 5 3 3 3 3 3 2 1 1 1 1 2 3 4 2
8 8 8 8 8 8 8 9 10 9 8 8 8 8 7 7 7 6 7 6 6 5 6 6 6 6 5 5 5 3 3 4 3 2 2 2 1 1 1 1 2 3 4
9 8 8 8 8 8 8 9 9 8 7 8 7 7 7 7 6 6 7 6 6 6 7 7 6 6 6 6 5 5 5 5 4 3 3 3 2 1 1 1 1 2 3
8 8 8 8 8 8 8 9 9 9 8 8 7 7 6 7 6 6 7 7 7 7 7 7 7 7 6 6 7 6 5 5 5 4 4 4 2 2 1 1 1 1 2
8 7 7 7 8 8 8 8 8 9 8 8 8 7 7 7 7 7 7 7 7 6 6 6 6 6 6 6 6 6 5 5 5 5 5 4 3 3 2 2 2 1 1
8 8 7 7 8 8 8 9 8 8 8 8 8 7 7 8 7 7 7 7 7 7 6 6 6 6 6 6 6 5 5 4 4 4 4 4 5 5 4 3 3 2 1
7 7 8 7 8 8 7 8 9 8 8 8 8 8 7 7 6 6 6 6 7 7 6 5 4 4 4 5 5 5 5 4 3 3 3 3 4 5 4 3 3 3 2
6 6 6 7 8 9 9 8 8 8 8 8 8 7 7 7 7 7 6 6 5 5 5 5 5 4 3 4 6 5 4 4 3 2 2 2 2 3 4 4 3 4 3
7 7 6 6 7 7 8 9 8 7 8 7 7 6 6 7 7 7 6 6 5 5 5 4 4 4 3 5 6 7 4 3 3 3 2 2 1 2 2 2 3 2 3
5 4 5 5 5 5 6 7 7 7 8 7 7 6 6 6 5 5 6 5 4 4 4 4 4 3 2 3 4 5 4 3 3 3 3 2 1 1 2 1 1 1 2
5 4 3 4 5 5 6 7 7 7 7 7 6 7 7 6 6 6 5 4 4 4 3 3 3 3 2 2 3 4 3 3 2 2 2 1 1 1 1 1 0 1 3
4 4 4 5 5 5 6 7 7 7 6 6 6 6 6 6 6 6 5 4 5 5 5 5 4 4 4 4 5 4 3 3 2 2 2 3 2 2 2 1 1 1 2
6 5 5 5 4 5 7 8 7 6 5 6 6 6 6 7 7 6 5 6 6 7 6 6 5 5 5 5 7 6 3 3 2 2 2 2 4 4 4 2 1 1 2
7 7 7 6 5 5 9 9 8 6 8 9 8 7 7 6 7 8 7 7 7 8 6 6 6 5 5 6 7 8 7 5 4 2 2 2 5 5 5 4 4 4 4
7 7 8 9 8 7 9 11 8 7 9 10 10 9 9 8 8 8 8 7 6 6 5 6 6 5 5 6 10 10 9 8 5 3 5 5 6 5 5 6 7 5 3
8 8 9 10 9 8 9 9 8 8 11 11 10 9 10 10 9 7 6 6 6 7 6 6 6 5 5 5 5 5 5 7 6 5 6 8 9 8 7 6 5 4 3
8 8 9 10 10 9 10 9 8 10 12 11 10 9 9 9 10 9 8 7 6 6 7 6 5 5 5 4 5 4 4 3 4 4 5 6 5 6 5 5 5 4 4
8 9 9 9 9 10 10 8 8 9 11 10 8 7 7 7 8 10 10 14 12 14 13 10 8 6 7 8 10 11 11 10 9 7 6 5 5 5 5 5 4 4 5
Wind_Direction
165 158 157 156 151 153 157 160 159 161 158 155 156 154 158 161 159 161 157 155 152 147 144 143 140 136 136 148 139 118 103 93 109 83 42 5 4 147 175 174 177 192 197
156 160 161 161 163 164 164 163 166 168 167 163 160 152 150 157 161 158 158 158 154 155 157 149 151 146 135 133 129 120 115 85 112 120 97 32 352 344 345 179 186 192 184
166 167 167 169 167 170 172 172 172 169 165 156 143 133 122 120 135 152 163 166 158 156 153 154 151 149 145 150 150 136 132 136 61 135 140 143 207 291 326 295 198 179 181
163 166 166 169 173 174 171 167 169 166 163 158 157 156 160 165 175 167 164 164 160 160 158 154 153 149 148 154 159 145 140 137 135 26 138 160 155 149 279 321 306 212 200
166 167 171 174 171 168 169 166 166 164 164 166 164 163 165 166 154 153 157 162 162 163 162 158 152 151 152 157 150 135 132 137 145 153 141 100 91 123 140 225 291 305 256
163 163 164 159 162 166 172 167 168 170 171 169 168 169 168 164 158 163 166 163 159 164 164 159 155 158 158 162 157 146 139 143 143 143 139 146 151 178 157 178 223 247 268
161 162 162 163 164 171 173 169 170 173 174 172 173 174 171 168 169 170 169 163 163 172 179 165 162 163 168 168 157 150 155 157 152 158 161 164 180 176 159 152 183 236 280
164 165 169 169 170 174 172 167 170 170 170 170 173 173 170 168 170 172 168 172 174 178 175 169 171 171 171 171 161 154 169 166 162 164 161 165 187 168 164 158 149 143 311
167 166 167 169 170 169 170 170 170 169 172 172 171 168 168 169 171 170 166 169 172 174 174 172 175 179 176 171 163 169 181 169 172 176 177 183 207 159 164 158 154 151 178
159 162 165 169 172 170 168 169 169 171 173 171 174 173 171 173 172 168 170 172 174 171 168 173 177 180 179 174 169 170 181 178 188 188 182 192 205 176 128 140 149 152 161
162 161 164 166 169 164 163 165 168 166 169 171 169 165 169 171 171 175 177 175 176 174 176 179 179 180 180 179 177 186 184 188 202 206 198 214 200 181 158 132 133 149 156
159 161 162 161 160 162 165 168 171 172 176 171 163 164 165 167 172 179 180 177 178 179 180 177 181 187 186 183 184 195 194 195 205 212 206 221 209 200 204 173 185 194 186
151 156 160 162 165 167 166 168 175 177 174 168 166 166 168 173 179 182 181 177 175 174 176 173 184 191 190 190 191 192 194 198 204 205 201 209 193 208 216 207 209 225 214
150 157 168 170 168 168 169 169 173 174 171 169 171 174 179 181 183 180 178 177 173 172 175 179 184 190 189 189 192 189 191 191 199 201 199 200 193 202 206 211 217 215 221
152 161 171 173 170 169 170 173 174 172 170 169 177 185 181 177 177 175 175 174 176 177 173 172 175 178 180 189 185 183 184 184 193 203 208 215 208 205 201 206 212 208 216
161 159 162 167 174 175 174 172 175 175 170 174 182 183 175 174 177 178 174 173 172 166 157 166 170 170 187 182 181 179 182 176 181 198 217 224 214 211 201 202 193 188 197
155 161 166 172 179 179 172 172 172 164 164 172 175 173 173 177 179 177 168 171 172 161 158 171 169 175 191 183 178 179 170 164 177 188 192 210 207 198 196 214 209 204 214
134 153 157 160 165 163 160 159 155 158 161 165 169 168 166 170 167 162 166 173 164 161 163 164 170 173 197 183 173 174 165 159 174 182 180 186 222 205 184 185 208 251 260
124 136 147 147 141 150 156 151 154 156 159 166 169 170 168 164 161 160 164 157 142 139 136 137 141 132 93 105 134 147 133 126 121 113 110 134 129 355 141 127 193 295 302
90 100 115 124 126 140 145 142 147 146 154 160 158 154 151 149 150 151 144 133 130 127 119 101 93 99 84 71 89 120 119 114 101 72 62 69 76 53 85 117 132 297 301
76 78 84 97 114 127 126 123 122 128 132 123 117 118 124 125 125 120 113 113 111 106 103 96 81 77 75 68 73 88 98 111 107 86 50 28 46 55 60 74 77 313 320
69 76 84 78 76 96 109 105 102 102 101 100 97 95 96 104 110 107 103 104 107 103 98 95 80 60 53 57 66 72 73 76 86 71 50 43 48 53 50 50 36 33 33
75 72 81 81 74 78 98 103 99 99 99 95 92 90 85 80 86 97 102 100 97 100 96 89 82 63 47 45 53 57 58 62 73 69 64 56 51 53 49 45 40 39 36
81 79 80 82 79 77 82 90 94 97 96 96 94 92 90 83 76 75 80 89 93 98 94 90 87 74 53 42 38 44 50 54 60 60 57 57 56 52 44 37 36 36 35
83 81 82 84 83 82 80 79 86 94 93 93 92 90 89 92 85 76 66 75 69 93 102 100 100 94 72 39 50 64 59 57 64 68 58 49 44 40 34 31 28 26 26
91 87 82 82 81 83 83 78 81 95 100 97 94 94 94 93 94 94 79 60 75 78 83 92 97 83 85 77 68 67 69 69 75 74 64 55 48 43 35 30 23 21 18